Year,Month,Day,Hour,Minute,Value (Times are PST for temperature in C)
2013,09,25,00,00,2.60
2013,09,25,00,01,2.50
2013,09,25,00,02,2.50
2013,09,25,00,03,2.50
2013,09,25,00,04,2.50
2013,09,25,00,05,2.50
2013,09,25,00,06,2.50
2013,09,25,00,07,2.50
2013,09,25,00,08,2.50
2013,09,25,00,09,2.50
2013,09,25,00,10,2.50
2013,09,25,00,11,2.50
2013,09,25,00,12,2.50
2013,09,25,00,13,2.50
2013,09,25,00,14,2.50
2013,09,25,00,15,2.50
2013,09,25,00,16,2.50
2013,09,25,00,17,2.50
2013,09,25,00,18,2.50
2013,09,25,00,19,2.50
2013,09,25,00,20,2.50
2013,09,25,00,21,2.50
2013,09,25,00,22,2.50
2013,09,25,00,23,2.50
2013,09,25,00,24,2.50
2013,09,25,00,25,2.50
2013,09,25,00,26,2.50
2013,09,25,00,27,2.50
2013,09,25,00,28,2.50
2013,09,25,00,29,2.50
2013,09,25,00,30,2.50
2013,09,25,00,31,2.40
2013,09,25,00,32,2.40
2013,09,25,00,33,2.40
2013,09,25,00,34,2.40
2013,09,25,00,35,2.40
2013,09,25,00,36,2.40
2013,09,25,00,37,2.40
2013,09,25,00,38,2.40
2013,09,25,00,39,2.40
2013,09,25,00,40,2.40
2013,09,25,00,41,2.40
2013,09,25,00,42,2.40
2013,09,25,00,43,2.40
2013,09,25,00,44,2.40
2013,09,25,00,45,2.40
2013,09,25,00,46,2.40
2013,09,25,00,47,2.40
2013,09,25,00,48,2.40
2013,09,25,00,49,2.40
2013,09,25,00,50,2.40
2013,09,25,00,51,2.40
2013,09,25,00,52,2.40
2013,09,25,00,53,2.40
2013,09,25,00,54,2.40
2013,09,25,00,55,2.40
2013,09,25,00,56,2.40
2013,09,25,00,57,2.40
2013,09,25,00,58,2.40
2013,09,25,00,59,2.40
2013,09,25,01,00,2.40
2013,09,25,01,01,2.40
2013,09,25,01,02,2.40
2013,09,25,01,03,2.40
2013,09,25,01,04,2.40
2013,09,25,01,05,2.40
2013,09,25,01,06,2.40
2013,09,25,01,07,2.40
2013,09,25,01,08,2.40
2013,09,25,01,09,2.40
2013,09,25,01,10,2.40
2013,09,25,01,11,2.40
2013,09,25,01,12,2.40
2013,09,25,01,13,2.40
2013,09,25,01,14,2.40
2013,09,25,01,15,2.40
2013,09,25,01,16,2.40
2013,09,25,01,17,2.40
2013,09,25,01,18,2.40
2013,09,25,01,19,2.40
2013,09,25,01,20,2.40
2013,09,25,01,21,2.40
2013,09,25,01,22,2.40
2013,09,25,01,23,2.40
2013,09,25,01,24,2.40
2013,09,25,01,25,2.40
2013,09,25,01,26,2.40
2013,09,25,01,27,2.40
2013,09,25,01,28,2.40
2013,09,25,01,29,2.40
2013,09,25,01,30,2.40
2013,09,25,01,31,2.40
2013,09,25,01,32,2.40
2013,09,25,01,33,2.40
2013,09,25,01,34,2.40
2013,09,25,01,35,2.40
2013,09,25,01,36,2.40
2013,09,25,01,37,2.40
2013,09,25,01,38,2.40
2013,09,25,01,39,2.40
2013,09,25,01,40,2.40
2013,09,25,01,41,2.40
2013,09,25,01,42,2.40
2013,09,25,01,43,2.40
2013,09,25,01,44,2.40
2013,09,25,01,45,2.40
2013,09,25,01,46,2.40
2013,09,25,01,47,2.40
2013,09,25,01,48,2.40
2013,09,25,01,49,2.40
2013,09,25,01,50,2.40
2013,09,25,01,51,2.40
2013,09,25,01,52,2.40
2013,09,25,01,53,2.40
2013,09,25,01,54,2.40
2013,09,25,01,55,2.40
2013,09,25,01,56,2.40
2013,09,25,01,57,2.40
2013,09,25,01,58,2.40
2013,09,25,01,59,2.40
2013,09,25,02,00,2.40
2013,09,25,02,02,2.40
2013,09,25,02,03,2.40
2013,09,25,02,04,2.40
2013,09,25,02,05,2.40
2013,09,25,02,06,2.40
2013,09,25,02,07,2.40
2013,09,25,02,08,2.40
2013,09,25,02,09,2.40
2013,09,25,02,10,2.40
2013,09,25,02,11,2.40
2013,09,25,02,12,2.40
2013,09,25,02,13,2.40
2013,09,25,02,14,2.40
2013,09,25,02,15,2.40
2013,09,25,02,16,2.40
2013,09,25,02,17,2.40
2013,09,25,02,18,2.40
2013,09,25,02,19,2.40
2013,09,25,02,20,2.40
2013,09,25,02,21,2.40
2013,09,25,02,22,2.40
2013,09,25,02,23,2.40
2013,09,25,02,24,2.40
2013,09,25,02,25,2.40
2013,09,25,02,26,2.40
2013,09,25,02,27,2.40
2013,09,25,02,28,2.40
2013,09,25,02,29,2.40
2013,09,25,02,30,2.40
2013,09,25,02,31,2.40
2013,09,25,02,32,2.40
2013,09,25,02,33,2.40
2013,09,25,02,34,2.40
2013,09,25,02,35,2.40
2013,09,25,02,36,2.40
2013,09,25,02,37,2.40
2013,09,25,02,38,2.40
2013,09,25,02,39,2.40
2013,09,25,02,40,2.40
2013,09,25,02,41,2.40
2013,09,25,02,42,2.40
2013,09,25,02,43,2.40
2013,09,25,02,44,2.40
2013,09,25,02,45,2.40
2013,09,25,02,46,2.40
2013,09,25,02,47,2.40
2013,09,25,02,48,2.40
2013,09,25,02,49,2.40
2013,09,25,02,50,2.40
2013,09,25,02,51,2.40
2013,09,25,02,52,2.40
2013,09,25,02,53,2.40
2013,09,25,02,54,2.40
2013,09,25,02,55,2.40
2013,09,25,02,56,2.40
2013,09,25,02,57,2.40
2013,09,25,02,58,2.40
2013,09,25,02,59,2.40
2013,09,25,03,00,2.40
2013,09,25,03,01,2.40
2013,09,25,03,02,2.40
2013,09,25,03,03,2.40
2013,09,25,03,04,2.40
2013,09,25,03,05,2.40
2013,09,25,03,06,2.40
2013,09,25,03,07,2.40
2013,09,25,03,08,2.40
2013,09,25,03,09,2.40
2013,09,25,03,10,2.40
2013,09,25,03,11,2.40
2013,09,25,03,12,2.40
2013,09,25,03,13,2.40
2013,09,25,03,14,2.40
2013,09,25,03,15,2.40
2013,09,25,03,16,2.40
2013,09,25,03,17,2.40
2013,09,25,03,18,2.40
2013,09,25,03,19,2.40
2013,09,25,03,20,2.40
2013,09,25,03,21,2.40
2013,09,25,03,22,2.40
2013,09,25,03,23,2.40
2013,09,25,03,24,2.40
2013,09,25,03,25,2.40
2013,09,25,03,26,2.40
2013,09,25,03,27,2.40
2013,09,25,03,28,2.40
2013,09,25,03,29,2.40
2013,09,25,03,30,2.40
2013,09,25,03,31,2.40
2013,09,25,03,32,2.40
2013,09,25,03,33,2.40
2013,09,25,03,34,2.40
2013,09,25,03,35,2.40
2013,09,25,03,36,2.40
2013,09,25,03,37,2.40
2013,09,25,03,38,2.40
2013,09,25,03,39,2.40
2013,09,25,03,40,2.40
2013,09,25,03,41,2.40
2013,09,25,03,42,2.40
2013,09,25,03,43,2.40
2013,09,25,03,44,2.40
2013,09,25,03,45,2.40
2013,09,25,03,46,2.30
2013,09,25,03,47,2.30
2013,09,25,03,48,2.30
2013,09,25,03,49,2.30
2013,09,25,03,50,2.30
2013,09,25,03,51,2.30
2013,09,25,03,52,2.30
2013,09,25,03,53,2.30
2013,09,25,03,54,2.30
2013,09,25,03,55,2.30
2013,09,25,03,56,2.30
2013,09,25,03,57,2.30
2013,09,25,03,58,2.30
2013,09,25,03,59,2.30
2013,09,25,04,00,2.30
2013,09,25,04,02,2.30
2013,09,25,04,03,2.30
2013,09,25,04,04,2.30
2013,09,25,04,05,2.30
2013,09,25,04,06,2.30
2013,09,25,04,07,2.30
2013,09,25,04,08,2.30
2013,09,25,04,09,2.30
2013,09,25,04,10,2.30
2013,09,25,04,11,2.30
2013,09,25,04,12,2.30
2013,09,25,04,13,2.30
2013,09,25,04,14,2.30
2013,09,25,04,15,2.30
2013,09,25,04,16,2.20
2013,09,25,04,17,2.20
2013,09,25,04,18,2.20
2013,09,25,04,19,2.20
2013,09,25,04,20,2.20
2013,09,25,04,21,2.20
2013,09,25,04,22,2.20
2013,09,25,04,23,2.20
2013,09,25,04,24,2.20
2013,09,25,04,25,2.20
2013,09,25,04,26,2.20
2013,09,25,04,27,2.20
2013,09,25,04,28,2.20
2013,09,25,04,29,2.20
2013,09,25,04,30,2.20
2013,09,25,04,31,2.00
2013,09,25,04,32,2.00
2013,09,25,04,33,2.00
2013,09,25,04,34,2.00
2013,09,25,04,35,2.00
2013,09,25,04,36,2.00
2013,09,25,04,37,2.00
2013,09,25,04,38,2.00
2013,09,25,04,39,2.00
2013,09,25,04,40,2.00
2013,09,25,04,41,2.00
2013,09,25,04,42,2.00
2013,09,25,04,43,2.00
2013,09,25,04,44,2.00
2013,09,25,04,45,2.00
2013,09,25,04,46,1.70
2013,09,25,04,47,1.70
2013,09,25,04,48,1.70
2013,09,25,04,49,1.70
2013,09,25,04,50,1.70
2013,09,25,04,51,1.70
2013,09,25,04,52,1.70
2013,09,25,04,53,1.70
2013,09,25,04,54,1.70
2013,09,25,04,55,1.70
2013,09,25,04,56,1.70
2013,09,25,04,57,1.70
2013,09,25,04,58,1.70
2013,09,25,04,59,1.70
2013,09,25,05,00,1.70
2013,09,25,05,01,1.60
2013,09,25,05,02,1.60
2013,09,25,05,03,1.60
2013,09,25,05,04,1.60
2013,09,25,05,05,1.60
2013,09,25,05,06,1.60
2013,09,25,05,07,1.60
2013,09,25,05,08,1.60
2013,09,25,05,09,1.60
2013,09,25,05,10,1.60
2013,09,25,05,11,1.60
2013,09,25,05,12,1.60
2013,09,25,05,13,1.60
2013,09,25,05,14,1.60
2013,09,25,05,15,1.60
2013,09,25,05,16,1.50
2013,09,25,05,17,1.50
2013,09,25,05,18,1.50
2013,09,25,05,19,1.50
2013,09,25,05,20,1.50
2013,09,25,05,21,1.50
2013,09,25,05,22,1.50
2013,09,25,05,23,1.50
2013,09,25,05,24,1.50
2013,09,25,05,25,1.50
2013,09,25,05,26,1.50
2013,09,25,05,27,1.50
2013,09,25,05,28,1.50
2013,09,25,05,29,1.50
2013,09,25,05,30,1.50
2013,09,25,05,32,1.60
2013,09,25,05,33,1.60
2013,09,25,05,34,1.60
2013,09,25,05,35,1.60
2013,09,25,05,36,1.60
2013,09,25,05,37,1.60
2013,09,25,05,38,1.60
2013,09,25,05,39,1.60
2013,09,25,05,40,1.60
2013,09,25,05,41,1.60
2013,09,25,05,42,1.60
2013,09,25,05,43,1.60
2013,09,25,05,44,1.60
2013,09,25,05,45,1.60
2013,09,25,05,46,1.60
2013,09,25,05,47,1.60
2013,09,25,05,48,1.60
2013,09,25,05,49,1.60
2013,09,25,05,50,1.60
2013,09,25,05,51,1.60
2013,09,25,05,52,1.60
2013,09,25,05,53,1.60
2013,09,25,05,54,1.60
2013,09,25,05,55,1.60
2013,09,25,05,56,1.60
2013,09,25,05,57,1.60
2013,09,25,05,58,1.60
2013,09,25,05,59,1.60
2013,09,25,06,00,1.60
2013,09,25,06,01,1.60
2013,09,25,06,02,1.60
2013,09,25,06,03,1.60
2013,09,25,06,04,1.60
2013,09,25,06,05,1.60
2013,09,25,06,06,1.60
2013,09,25,06,07,1.60
2013,09,25,06,08,1.60
2013,09,25,06,09,1.60
2013,09,25,06,10,1.60
2013,09,25,06,11,1.60
2013,09,25,06,12,1.60
2013,09,25,06,13,1.60
2013,09,25,06,14,1.60
2013,09,25,06,15,1.60
2013,09,25,06,16,1.60
2013,09,25,06,17,1.60
2013,09,25,06,18,1.60
2013,09,25,06,19,1.60
2013,09,25,06,20,1.60
2013,09,25,06,21,1.60
2013,09,25,06,22,1.60
2013,09,25,06,23,1.60
2013,09,25,06,24,1.60
2013,09,25,06,25,1.60
2013,09,25,06,26,1.60
2013,09,25,06,27,1.60
2013,09,25,06,28,1.60
2013,09,25,06,29,1.60
2013,09,25,06,30,1.60
2013,09,25,06,31,1.60
2013,09,25,06,32,1.60
2013,09,25,06,33,1.60
2013,09,25,06,34,1.60
2013,09,25,06,35,1.60
2013,09,25,06,36,1.60
2013,09,25,06,37,1.60
2013,09,25,06,38,1.60
2013,09,25,06,39,1.60
2013,09,25,06,40,1.60
2013,09,25,06,41,1.60
2013,09,25,06,42,1.60
2013,09,25,06,43,1.60
2013,09,25,06,44,1.60
2013,09,25,06,45,1.60
2013,09,25,06,46,1.70
2013,09,25,06,47,1.70
2013,09,25,06,48,1.70
2013,09,25,06,49,1.70
2013,09,25,06,50,1.70
2013,09,25,06,51,1.70
2013,09,25,06,52,1.70
2013,09,25,06,53,1.70
2013,09,25,06,54,1.70
2013,09,25,06,55,1.70
2013,09,25,06,56,1.70
2013,09,25,06,57,1.70
2013,09,25,06,58,1.70
2013,09,25,06,59,1.70
2013,09,25,07,00,1.70
2013,09,25,07,01,1.70
2013,09,25,07,02,1.80
2013,09,25,07,03,1.80
2013,09,25,07,04,1.80
2013,09,25,07,05,1.80
2013,09,25,07,06,1.80
2013,09,25,07,07,1.80
2013,09,25,07,08,1.80
2013,09,25,07,09,1.80
2013,09,25,07,10,1.80
2013,09,25,07,11,1.80
2013,09,25,07,12,1.80
2013,09,25,07,13,1.80
2013,09,25,07,14,1.80
2013,09,25,07,15,1.80
2013,09,25,07,16,1.80
2013,09,25,07,17,1.80
2013,09,25,07,18,1.80
2013,09,25,07,19,1.80
2013,09,25,07,20,1.80
2013,09,25,07,21,1.80
2013,09,25,07,22,1.80
2013,09,25,07,23,1.80
2013,09,25,07,24,1.80
2013,09,25,07,25,1.80
2013,09,25,07,26,1.80
2013,09,25,07,27,1.80
2013,09,25,07,28,1.80
2013,09,25,07,29,1.80
2013,09,25,07,30,1.80
2013,09,25,07,31,1.90
2013,09,25,07,32,1.90
2013,09,25,07,33,1.90
2013,09,25,07,34,1.90
2013,09,25,07,35,1.90
2013,09,25,07,36,1.90
2013,09,25,07,37,1.90
2013,09,25,07,38,1.90
2013,09,25,07,39,1.90
2013,09,25,07,40,1.90
2013,09,25,07,41,1.90
2013,09,25,07,42,1.90
2013,09,25,07,43,1.90
2013,09,25,07,44,1.90
2013,09,25,07,45,1.90
2013,09,25,07,46,1.90
2013,09,25,07,47,2.00
2013,09,25,07,48,2.00
2013,09,25,07,49,2.00
2013,09,25,07,50,2.00
2013,09,25,07,51,2.00
2013,09,25,07,52,2.00
2013,09,25,07,53,2.00
2013,09,25,07,54,2.00
2013,09,25,07,55,2.00
2013,09,25,07,56,2.00
2013,09,25,07,57,2.00
2013,09,25,07,58,2.00
2013,09,25,07,59,2.00
2013,09,25,08,00,2.00
2013,09,25,08,01,2.00
2013,09,25,08,02,2.10
2013,09,25,08,03,2.10
2013,09,25,08,04,2.10
2013,09,25,08,05,2.10
2013,09,25,08,06,2.10
2013,09,25,08,07,2.10
2013,09,25,08,08,2.10
2013,09,25,08,09,2.10
2013,09,25,08,10,2.10
2013,09,25,08,11,2.10
2013,09,25,08,12,2.10
2013,09,25,08,13,2.10
2013,09,25,08,14,2.10
2013,09,25,08,15,2.10
2013,09,25,08,16,2.20
2013,09,25,08,17,2.20
2013,09,25,08,18,2.20
2013,09,25,08,19,2.20
2013,09,25,08,20,2.20
2013,09,25,08,21,2.20
2013,09,25,08,22,2.20
2013,09,25,08,23,2.20
2013,09,25,08,24,2.20
2013,09,25,08,25,2.20
2013,09,25,08,26,2.20
2013,09,25,08,27,2.20
2013,09,25,08,28,2.20
2013,09,25,08,29,2.20
2013,09,25,08,30,2.20
2013,09,25,08,31,2.80
2013,09,25,08,32,2.80
2013,09,25,08,33,2.80
2013,09,25,08,34,2.80
2013,09,25,08,35,2.80
2013,09,25,08,36,2.80
2013,09,25,08,37,2.80
2013,09,25,08,38,2.80
2013,09,25,08,39,2.80
2013,09,25,08,40,2.80
2013,09,25,08,41,2.80
2013,09,25,08,42,2.80
2013,09,25,08,43,2.80
2013,09,25,08,44,2.80
2013,09,25,08,45,2.80
2013,09,25,08,46,3.70
2013,09,25,08,47,3.70
2013,09,25,08,48,3.70
2013,09,25,08,49,3.70
2013,09,25,08,50,3.70
2013,09,25,08,51,3.70
2013,09,25,08,52,3.70
2013,09,25,08,53,3.70
2013,09,25,08,54,3.70
2013,09,25,08,55,3.70
2013,09,25,08,56,3.70
2013,09,25,08,57,3.70
2013,09,25,08,58,3.70
2013,09,25,08,59,3.70
2013,09,25,09,00,3.70
2013,09,25,09,01,4.30
2013,09,25,09,02,4.30
2013,09,25,09,03,4.30
2013,09,25,09,04,4.30
2013,09,25,09,05,4.30
2013,09,25,09,06,4.30
2013,09,25,09,07,4.30
2013,09,25,09,08,4.30
2013,09,25,09,09,4.30
2013,09,25,09,10,4.30
2013,09,25,09,11,4.30
2013,09,25,09,12,4.30
2013,09,25,09,13,4.30
2013,09,25,09,14,4.30
2013,09,25,09,15,4.30
2013,09,25,09,16,4.30
2013,09,25,09,17,5.10
2013,09,25,09,18,5.10
2013,09,25,09,19,5.10
2013,09,25,09,20,5.10
2013,09,25,09,21,5.10
2013,09,25,09,22,5.10
2013,09,25,09,23,5.10
2013,09,25,09,24,5.10
2013,09,25,09,25,5.10
2013,09,25,09,26,5.10
2013,09,25,09,27,5.10
2013,09,25,09,28,5.10
2013,09,25,09,29,5.10
2013,09,25,09,30,5.10
2013,09,25,09,31,5.40
2013,09,25,09,32,5.40
2013,09,25,09,33,5.40
2013,09,25,09,34,5.40
2013,09,25,09,35,5.40
2013,09,25,09,36,5.40
2013,09,25,09,37,5.40
2013,09,25,09,38,5.40
2013,09,25,09,39,5.40
2013,09,25,09,40,5.40
2013,09,25,09,41,5.40
2013,09,25,09,42,5.40
2013,09,25,09,43,5.40
2013,09,25,09,44,5.40
2013,09,25,09,45,5.40
2013,09,25,09,46,5.70
2013,09,25,09,47,5.70
2013,09,25,09,48,5.70
2013,09,25,09,49,5.70
2013,09,25,09,50,5.70
2013,09,25,09,51,5.70
2013,09,25,09,52,5.70
2013,09,25,09,53,5.70
2013,09,25,09,54,5.70
2013,09,25,09,55,5.70
2013,09,25,09,56,5.70
2013,09,25,09,57,5.70
2013,09,25,09,58,5.70
2013,09,25,09,59,5.70
2013,09,25,10,00,5.70
2013,09,25,10,01,5.70
2013,09,25,10,02,6.10
2013,09,25,10,03,6.10
2013,09,25,10,04,6.10
2013,09,25,10,05,6.10
2013,09,25,10,06,6.10
2013,09,25,10,07,6.10
2013,09,25,10,08,6.10
2013,09,25,10,09,6.10
2013,09,25,10,10,6.10
2013,09,25,10,11,6.10
2013,09,25,10,12,6.10
2013,09,25,10,13,6.10
2013,09,25,10,14,6.10
2013,09,25,10,15,6.10
2013,09,25,10,16,5.90
2013,09,25,10,17,5.90
2013,09,25,10,18,5.90
2013,09,25,10,19,5.90
2013,09,25,10,20,5.90
2013,09,25,10,21,5.90
2013,09,25,10,22,5.90
2013,09,25,10,23,5.90
2013,09,25,10,24,5.90
2013,09,25,10,25,5.90
2013,09,25,10,26,5.90
2013,09,25,10,27,5.90
2013,09,25,10,28,5.90
2013,09,25,10,29,5.90
2013,09,25,10,30,5.90
2013,09,25,10,31,6.10
2013,09,25,10,32,6.10
2013,09,25,10,33,6.10
2013,09,25,10,34,6.10
2013,09,25,10,35,6.10
2013,09,25,10,36,6.10
2013,09,25,10,37,6.10
2013,09,25,10,38,6.10
2013,09,25,10,39,6.10
2013,09,25,10,40,6.10
2013,09,25,10,41,6.10
2013,09,25,10,42,6.10
2013,09,25,10,43,6.10
2013,09,25,10,44,6.10
2013,09,25,10,45,6.10
2013,09,25,10,46,6.10
2013,09,25,10,47,6.30
2013,09,25,10,48,6.30
2013,09,25,10,49,6.30
2013,09,25,10,50,6.30
2013,09,25,10,51,6.30
2013,09,25,10,52,6.30
2013,09,25,10,53,6.30
2013,09,25,10,54,6.30
2013,09,25,10,55,6.30
2013,09,25,10,56,6.30
2013,09,25,10,57,6.30
2013,09,25,10,58,6.30
2013,09,25,10,59,6.30
2013,09,25,11,00,6.30
2013,09,25,11,01,6.30
2013,09,25,11,02,6.70
2013,09,25,11,03,6.70
2013,09,25,11,04,6.70
2013,09,25,11,05,6.70
2013,09,25,11,06,6.70
2013,09,25,11,07,6.70
2013,09,25,11,08,6.70
2013,09,25,11,09,6.70
2013,09,25,11,10,6.70
2013,09,25,11,11,6.70
2013,09,25,11,12,6.70
2013,09,25,11,13,6.70
2013,09,25,11,14,6.70
2013,09,25,11,15,6.70
2013,09,25,11,16,7.10
2013,09,25,11,17,7.10
2013,09,25,11,18,7.10
2013,09,25,11,19,7.10
2013,09,25,11,20,7.10
2013,09,25,11,21,7.10
2013,09,25,11,22,7.10
2013,09,25,11,23,7.10
2013,09,25,11,24,7.10
2013,09,25,11,25,7.10
2013,09,25,11,26,7.10
2013,09,25,11,27,7.10
2013,09,25,11,28,7.10
2013,09,25,11,29,7.10
2013,09,25,11,30,7.10
2013,09,25,11,31,7.40
2013,09,25,11,32,7.40
2013,09,25,11,33,7.40
2013,09,25,11,34,7.40
2013,09,25,11,35,7.40
2013,09,25,11,36,7.40
2013,09,25,11,37,7.40
2013,09,25,11,38,7.40
2013,09,25,11,39,7.40
2013,09,25,11,40,7.40
2013,09,25,11,41,7.40
2013,09,25,11,42,7.40
2013,09,25,11,43,7.40
2013,09,25,11,44,7.40
2013,09,25,11,45,7.40
2013,09,25,11,46,7.70
2013,09,25,11,47,7.70
2013,09,25,11,48,7.70
2013,09,25,11,49,7.70
2013,09,25,11,50,7.70
2013,09,25,11,51,7.70
2013,09,25,11,52,7.70
2013,09,25,11,53,7.70
2013,09,25,11,54,7.70
2013,09,25,11,55,7.70
2013,09,25,11,56,7.70
2013,09,25,11,57,7.70
2013,09,25,11,58,7.70
2013,09,25,11,59,7.70
2013,09,25,12,00,7.70
2013,09,25,12,01,8.00
2013,09,25,12,02,8.00
2013,09,25,12,03,8.00
2013,09,25,12,04,8.00
2013,09,25,12,05,8.00
2013,09,25,12,06,8.00
2013,09,25,12,07,8.00
2013,09,25,12,08,8.00
2013,09,25,12,09,8.00
2013,09,25,12,10,8.00
2013,09,25,12,11,8.00
2013,09,25,12,12,8.00
2013,09,25,12,13,8.00
2013,09,25,12,14,8.00
2013,09,25,12,15,8.00
2013,09,25,12,16,8.60
2013,09,25,12,17,8.60
2013,09,25,12,18,8.60
2013,09,25,12,19,8.60
2013,09,25,12,20,8.60
2013,09,25,12,21,8.60
2013,09,25,12,22,8.60
2013,09,25,12,23,8.60
2013,09,25,12,24,8.60
2013,09,25,12,25,8.60
2013,09,25,12,26,8.60
2013,09,25,12,27,8.60
2013,09,25,12,28,8.60
2013,09,25,12,29,8.60
2013,09,25,12,30,8.60
2013,09,25,12,31,8.80
2013,09,25,12,32,8.80
2013,09,25,12,33,8.80
2013,09,25,12,34,8.80
2013,09,25,12,35,8.80
2013,09,25,12,36,8.80
2013,09,25,12,37,8.80
2013,09,25,12,38,8.80
2013,09,25,12,39,8.80
2013,09,25,12,40,8.80
2013,09,25,12,41,8.80
2013,09,25,12,42,8.80
2013,09,25,12,43,8.80
2013,09,25,12,44,8.80
2013,09,25,12,45,8.80
2013,09,25,12,46,8.80
2013,09,25,12,47,8.80
2013,09,25,12,48,8.80
2013,09,25,12,49,8.80
2013,09,25,12,50,8.80
2013,09,25,12,51,8.80
2013,09,25,12,52,8.80
2013,09,25,12,53,8.80
2013,09,25,12,54,8.80
2013,09,25,12,55,8.80
2013,09,25,12,56,8.80
2013,09,25,12,57,8.80
2013,09,25,12,58,8.80
2013,09,25,12,59,8.80
2013,09,25,13,00,8.80
2013,09,25,13,02,9.00
2013,09,25,13,03,9.00
2013,09,25,13,04,9.00
2013,09,25,13,05,9.00
2013,09,25,13,06,9.00
2013,09,25,13,07,9.00
2013,09,25,13,08,9.00
2013,09,25,13,09,9.00
2013,09,25,13,10,9.00
2013,09,25,13,11,9.00
2013,09,25,13,12,9.00
2013,09,25,13,13,9.00
2013,09,25,13,14,9.00
2013,09,25,13,15,9.00
2013,09,25,13,16,9.70
2013,09,25,13,17,9.70
2013,09,25,13,18,9.70
2013,09,25,13,19,9.70
2013,09,25,13,20,9.70
2013,09,25,13,21,9.70
2013,09,25,13,22,9.70
2013,09,25,13,23,9.70
2013,09,25,13,24,9.70
2013,09,25,13,25,9.70
2013,09,25,13,26,9.70
2013,09,25,13,27,9.70
2013,09,25,13,28,9.70
2013,09,25,13,29,9.70
2013,09,25,13,30,9.70
2013,09,25,13,31,9.80
2013,09,25,13,32,9.80
2013,09,25,13,33,9.80
2013,09,25,13,34,9.80
2013,09,25,13,35,9.80
2013,09,25,13,36,9.80
2013,09,25,13,37,9.80
2013,09,25,13,38,9.80
2013,09,25,13,39,9.80
2013,09,25,13,40,9.80
2013,09,25,13,41,9.80
2013,09,25,13,42,9.80
2013,09,25,13,43,9.80
2013,09,25,13,44,9.80
2013,09,25,13,45,9.80
2013,09,25,13,46,9.80
2013,09,25,13,47,9.80
2013,09,25,13,48,9.80
2013,09,25,13,49,9.80
2013,09,25,13,50,9.80
2013,09,25,13,51,9.80
2013,09,25,13,52,9.80
2013,09,25,13,53,9.80
2013,09,25,13,54,9.80
2013,09,25,13,55,9.80
2013,09,25,13,56,9.80
2013,09,25,13,57,9.80
2013,09,25,13,58,9.80
2013,09,25,13,59,9.80
2013,09,25,14,00,9.80
2013,09,25,14,01,9.80
2013,09,25,14,02,9.80
2013,09,25,14,03,9.80
2013,09,25,14,04,9.80
2013,09,25,14,05,9.80
2013,09,25,14,06,9.80
2013,09,25,14,07,9.80
2013,09,25,14,08,9.80
2013,09,25,14,09,9.80
2013,09,25,14,10,9.80
2013,09,25,14,11,9.80
2013,09,25,14,12,9.80
2013,09,25,14,13,9.80
2013,09,25,14,14,9.80
2013,09,25,14,15,9.80
2013,09,25,14,16,10.10
2013,09,25,14,17,10.10
2013,09,25,14,18,10.10
2013,09,25,14,19,10.10
2013,09,25,14,20,10.10
2013,09,25,14,21,10.10
2013,09,25,14,22,10.10
2013,09,25,14,23,10.10
2013,09,25,14,24,10.10
2013,09,25,14,25,10.10
2013,09,25,14,26,10.10
2013,09,25,14,27,10.10
2013,09,25,14,28,10.10
2013,09,25,14,29,10.10
2013,09,25,14,30,10.10
2013,09,25,14,31,10.70
2013,09,25,14,32,10.70
2013,09,25,14,33,10.70
2013,09,25,14,34,10.70
2013,09,25,14,35,10.70
2013,09,25,14,36,10.70
2013,09,25,14,37,10.70
2013,09,25,14,38,10.70
2013,09,25,14,39,10.70
2013,09,25,14,40,10.70
2013,09,25,14,41,10.70
2013,09,25,14,42,10.70
2013,09,25,14,43,10.70
2013,09,25,14,44,10.70
2013,09,25,14,45,10.70
2013,09,25,14,46,10.90
2013,09,25,14,47,10.90
2013,09,25,14,48,10.90
2013,09,25,14,49,10.90
2013,09,25,14,50,10.90
2013,09,25,14,51,10.90
2013,09,25,14,52,10.90
2013,09,25,14,53,10.90
2013,09,25,14,54,10.90
2013,09,25,14,55,10.90
2013,09,25,14,56,10.90
2013,09,25,14,57,10.90
2013,09,25,14,58,10.90
2013,09,25,14,59,10.90
2013,09,25,15,00,10.90
2013,09,25,15,01,11.10
2013,09,25,15,02,11.10
2013,09,25,15,03,11.10
2013,09,25,15,04,11.10
2013,09,25,15,05,11.10
2013,09,25,15,06,11.10
2013,09,25,15,07,11.10
2013,09,25,15,08,11.10
2013,09,25,15,09,11.10
2013,09,25,15,10,11.10
2013,09,25,15,11,11.10
2013,09,25,15,12,11.10
2013,09,25,15,13,11.10
2013,09,25,15,14,11.10
2013,09,25,15,15,11.10
2013,09,25,15,16,10.80
2013,09,25,15,17,10.80
2013,09,25,15,18,10.80
2013,09,25,15,19,10.80
2013,09,25,15,20,10.80
2013,09,25,15,21,10.80
2013,09,25,15,22,10.80
2013,09,25,15,23,10.80
2013,09,25,15,24,10.80
2013,09,25,15,25,10.80
2013,09,25,15,26,10.80
2013,09,25,15,27,10.80
2013,09,25,15,28,10.80
2013,09,25,15,29,10.80
2013,09,25,15,30,10.80
2013,09,25,15,31,11.10
2013,09,25,15,32,11.10
2013,09,25,15,33,11.10
2013,09,25,15,34,11.10
2013,09,25,15,35,11.10
2013,09,25,15,36,11.10
2013,09,25,15,37,11.10
2013,09,25,15,38,11.10
2013,09,25,15,39,11.10
2013,09,25,15,40,11.10
2013,09,25,15,41,11.10
2013,09,25,15,42,11.10
2013,09,25,15,43,11.10
2013,09,25,15,44,11.10
2013,09,25,15,45,11.10
2013,09,25,15,46,10.70
2013,09,25,15,47,10.70
2013,09,25,15,48,10.70
2013,09,25,15,49,10.70
2013,09,25,15,50,10.70
2013,09,25,15,51,10.70
2013,09,25,15,52,10.70
2013,09,25,15,53,10.70
2013,09,25,15,54,10.70
2013,09,25,15,55,10.70
2013,09,25,15,56,10.70
2013,09,25,15,57,10.70
2013,09,25,15,58,10.70
2013,09,25,15,59,10.70
2013,09,25,16,00,10.70
2013,09,25,16,01,11.10
2013,09,25,16,02,11.10
2013,09,25,16,03,11.10
2013,09,25,16,04,11.10
2013,09,25,16,05,11.10
2013,09,25,16,06,11.10
2013,09,25,16,07,11.10
2013,09,25,16,08,11.10
2013,09,25,16,09,11.10
2013,09,25,16,10,11.10
2013,09,25,16,11,11.10
2013,09,25,16,12,11.10
2013,09,25,16,13,11.10
2013,09,25,16,14,11.10
2013,09,25,16,15,11.10
2013,09,25,16,16,11.10
2013,09,25,16,17,11.10
2013,09,25,16,18,11.10
2013,09,25,16,19,11.10
2013,09,25,16,20,11.10
2013,09,25,16,21,11.10
2013,09,25,16,22,11.10
2013,09,25,16,23,11.10
2013,09,25,16,24,11.10
2013,09,25,16,25,11.10
2013,09,25,16,26,11.10
2013,09,25,16,27,11.10
2013,09,25,16,28,11.10
2013,09,25,16,29,11.10
2013,09,25,16,30,11.10
2013,09,25,16,31,10.90
2013,09,25,16,32,10.90
2013,09,25,16,33,10.90
2013,09,25,16,34,10.90
2013,09,25,16,35,10.90
2013,09,25,16,36,10.90
2013,09,25,16,37,10.90
2013,09,25,16,38,10.90
2013,09,25,16,39,10.90
2013,09,25,16,40,10.90
2013,09,25,16,41,10.90
2013,09,25,16,42,10.90
2013,09,25,16,43,10.90
2013,09,25,16,44,10.90
2013,09,25,16,45,10.90
2013,09,25,16,46,10.90
2013,09,25,16,47,10.60
2013,09,25,16,48,10.60
2013,09,25,16,49,10.60
2013,09,25,16,50,10.60
2013,09,25,16,51,10.60
2013,09,25,16,52,10.60
2013,09,25,16,53,10.60
2013,09,25,16,54,10.60
2013,09,25,16,55,10.60
2013,09,25,16,56,10.60
2013,09,25,16,57,10.60
2013,09,25,16,58,10.60
2013,09,25,16,59,10.60
2013,09,25,17,00,10.60
2013,09,25,17,02,10.70
2013,09,25,17,03,10.70
2013,09,25,17,04,10.70
2013,09,25,17,05,10.70
2013,09,25,17,06,10.70
2013,09,25,17,07,10.70
2013,09,25,17,08,10.70
2013,09,25,17,09,10.70
2013,09,25,17,10,10.70
2013,09,25,17,11,10.70
2013,09,25,17,12,10.70
2013,09,25,17,13,10.70
2013,09,25,17,14,10.70
2013,09,25,17,15,10.70
2013,09,25,17,16,10.80
2013,09,25,17,17,10.80
2013,09,25,17,18,10.80
2013,09,25,17,19,10.80
2013,09,25,17,20,10.80
2013,09,25,17,21,10.80
2013,09,25,17,22,10.80
2013,09,25,17,23,10.80
2013,09,25,17,24,10.80
2013,09,25,17,25,10.80
2013,09,25,17,26,10.80
2013,09,25,17,27,10.80
2013,09,25,17,28,10.80
2013,09,25,17,29,10.80
2013,09,25,17,30,10.80
2013,09,25,17,31,9.90
2013,09,25,17,32,9.90
2013,09,25,17,33,9.90
2013,09,25,17,34,9.90
2013,09,25,17,35,9.90
2013,09,25,17,36,9.90
2013,09,25,17,37,9.90
2013,09,25,17,38,9.90
2013,09,25,17,39,9.90
2013,09,25,17,40,9.90
2013,09,25,17,41,9.90
2013,09,25,17,42,9.90
2013,09,25,17,43,9.90
2013,09,25,17,44,9.90
2013,09,25,17,45,9.90
2013,09,25,17,46,9.90
2013,09,25,17,47,9.90
2013,09,25,17,48,9.90
2013,09,25,17,49,9.90
2013,09,25,17,50,9.90
2013,09,25,17,51,9.90
2013,09,25,17,52,9.90
2013,09,25,17,53,9.90
2013,09,25,17,54,9.90
2013,09,25,17,55,9.90
2013,09,25,17,56,9.90
2013,09,25,17,57,9.90
2013,09,25,17,58,9.90
2013,09,25,17,59,9.90
2013,09,25,18,00,9.90
2013,09,25,18,01,9.80
2013,09,25,18,02,9.80